VR2R-13 Weather Reports


Display with metric or nautical units.
time (UTC)temp
F
wind
direction
speed
MPH
gust
MPH
rain 1hr
in
rain 24hr
in
rain mn
in
humidity
%
barometer
mb
20260901114025 70 54 7.0 16.0 0.00 0.00 0.00 98 901.1
20260901113524 70 79 4.0 14.0 0.00 0.00 0.00 99 901.1
20260901113425 70 51 1.0 7.0 0.00 0.00 0.00 99 901.1
20260901113024 70 37 7.0 17.0 0.00 0.00 0.00 98 901.0
20260901112825 70 12 6.0 17.0 0.00 0.00 0.00 98 901.1
20260901112524 70 7 7.0 15.0 0.00 0.00 0.00 98 901.1
20260901112225 70 44 5.0 15.0 0.00 0.00 0.00 98 901.1
20260901112024 70 29 6.0 15.0 0.00 0.00 0.00 98 901.2
20260901111625 70 58 7.0 19.0 0.00 0.00 0.00 98 901.1
20260901111523 70 44 8.0 19.0 0.00 0.00 0.00 98 901.0
20260901111025 70 6 8.0 19.0 0.00 0.00 0.00 98 901.1
20260901110524 70 28 1.0 13.0 0.00 0.00 0.00 99 901.1
20260901110425 70 11 9.0 17.0 0.00 0.00 0.00 98 901.2
20260901110024 70 42 8.0 16.0 0.00 0.00 0.00 98 901.1
20260901105825 70 4 1.0 9.0 0.00 0.00 0.00 99 901.2
20260901105524 70 29 9.0 20.0 0.00 0.00 0.00 99 901.0
20260901105225 70 10 7.0 17.0 0.00 0.00 0.00 99 901.2
20260901105023 70 25 7.0 17.0 0.00 0.00 0.00 99 901.1
20260901104625 70 37 9.0 17.0 0.00 0.00 0.00 99 901.1
20260901104523 70 34 8.0 15.0 0.00 0.00 0.00 99 901.1
20260901104025 70 48 7.0 13.0 0.00 0.00 0.00 99 901.2
20260901103524 70 59 4.0 12.0 0.00 0.00 0.00 99 901.2
20260901103425 70 28 4.0 12.0 0.00 0.00 0.00 99 901.2
20260901103023 70 60 4.0 15.0 0.01 0.01 0.00 99 901.1
20260901102825 70 348 8.0 15.0 0.00 0.00 0.00 99 901.1
20260901102523 70 52 6.0 15.0 0.00 0.00 0.00 99 901.1
20260901102224 70 46 7.0 13.0 0.00 0.00 0.00 99 901.1
20260901102023 70 22 5.0 8.0 0.00 0.00 0.00 99 901.2
20260901101624 69 32 0.0 10.0 0.00 0.00 0.00 99 901.1
20260901101523 70 12 3.0 15.0 0.00 0.00 0.00 98 901.1
20260901101025 70 355 6.0 15.0 0.00 0.00 0.00 98 901.1
20260901101023 70 9 6.0 15.0 0.00 0.00 0.00 98 901.0
20260901100523 70 31 8.0 14.0 0.00 0.00 0.00 98 901.0
20260901100424 70 51 7.0 13.0 0.00 0.00 0.00 98 901.1
20260901100023 70 47 6.0 15.0 0.00 0.00 0.00 98 901.0
20260901095824 70 36 5.0 15.0 0.00 0.00 0.00 99 901.0
20260901095523 70 41 7.0 15.0 0.00 0.00 0.00 98 900.9
20260901095225 70 38 8.0 15.0 0.00 0.00 0.00 98 900.9
20260901095023 70 35 8.0 14.0 0.00 0.00 0.00 99 900.8
20260901094624 70 47 4.0 12.0 0.00 0.00 0.00 99 900.9
20260901094024 70 39 3.0 14.0 0.00 0.00 0.00 99 900.8
20260901093523 71 60 8.0 13.0 0.00 0.00 0.00 99 900.9
20260901093424 71 11 8.0 13.0 0.00 0.00 0.00 99 900.9
20260901093023 71 39 9.0 13.0 0.00 0.00 0.00 99 900.9
20260901092824 71 43 5.0 13.0 0.00 0.00 0.00 99 900.9
20260901092523 71 63 6.0 10.0 0.00 0.00 0.00 99 900.9
20260901092224 71 74 5.0 11.0 0.00 0.00 0.00 99 900.8
20260901092025 71 48 0.0 0.0 0.00 0.00 0.00 99 900.8
20260901091624 71 57 9.0 14.0 0.00 0.00 0.00 99 900.7
20260901091523 71 47 9.0 14.0 0.00 0.00 0.00 99 900.7
20260901091024 71 41 6.0 13.0 0.00 0.00 0.00 99 900.8
20260901090523 71 62 7.0 11.0 0.00 0.00 0.00 99 900.8
20260901090424 71 22 5.0 11.0 0.00 0.00 0.00 99 900.8
20260901090023 71 51 9.0 12.0 0.00 0.00 0.00 99 900.8
20260901085824 71 47 0.0 10.0 0.00 0.00 0.00 99 900.8
20260901085523 71 51 9.0 15.0 0.00 0.00 0.00 99 900.7
20260901085224 71 18 10.0 15.0 0.00 0.00 0.00 99 900.6
20260901085022 71 66 10.0 15.0 0.00 0.00 0.00 99 900.7
20260901084624 71 45 10.0 16.0 0.00 0.00 0.00 99 900.7
20260901084522 71 38 10.0 16.0 0.00 0.00 0.00 99 900.6
20260901084024 71 65 10.0 16.0 0.00 0.00 0.00 99 900.6
20260901084022 71 40 10.0 16.0 0.00 0.00 0.00 99 900.6
20260901083524 70 69 9.0 15.0 0.00 0.00 0.00 99 900.6
20260901083424 70 50 10.0 18.0 0.00 0.00 0.00 99 900.6
20260901083022 70 23 10.0 18.0 0.00 0.00 0.00 99 900.6
20260901082824 70 7 10.0 18.0 0.00 0.00 0.00 99 900.6
20260901082522 70 57 10.0 18.0 0.00 0.00 0.00 99 900.6
20260901082223 70 41 11.0 17.0 0.00 0.00 0.00 99 900.5
20260901082022 70 71 11.0 17.0 0.00 0.00 0.00 99 900.6
20260901081623 70 72 11.0 17.0 0.00 0.00 0.00 99 900.5
20260901081522 70 53 11.0 17.0 0.00 0.00 0.00 99 900.5
20260901080522 70 58 11.0 18.0 0.00 0.00 0.00 99 900.4
20260901080423 70 44 11.0 18.0 0.00 0.00 0.00 99 900.4
20260901080022 70 62 14.0 18.0 0.00 0.00 0.00 98 900.3
20260901075823 70 59 13.0 18.0 0.00 0.00 0.00 99 900.3
20260901075522 70 51 0.0 17.0 0.00 0.00 0.00 99 900.2
20260901075223 70 53 12.0 20.0 0.00 0.00 0.00 99 900.3
20260901075022 70 40 4.0 20.0 0.00 0.00 0.00 99 900.2
20260901074623 70 51 15.0 21.0 0.00 0.00 0.00 99 900.3
20260901074522 70 41 17.0 21.0 0.00 0.00 0.00 99 900.3
20260901074024 70 46 0.0 14.0 0.00 0.00 0.00 99 900.3
20260901073423 70 69 12.0 23.0 0.00 0.00 0.00 99 900.4
20260901072823 69 59 17.0 23.0 0.00 0.00 0.00 99 900.4
20260901072223 69 63 10.0 23.0 0.00 0.00 0.00 99 900.4
20260901072022 69 39 6.0 25.0 0.00 0.00 0.00 99 900.3
20260901071623 69 69 18.0 26.0 0.00 0.00 0.00 99 900.3
20260901070423 69 70 23.0 31.0 0.00 0.00 0.00 98 900.0
20260901065823 69 50 7.0 25.0 0.00 0.00 0.00 98 900.2
20260901065223 69 47 25.0 33.0 0.00 0.00 0.00 98 899.7
20260901064023 69 50 8.0 23.0 0.00 0.00 0.00 99 900.2
20260901063423 69 55 0.0 28.0 0.00 0.00 0.00 99 899.8
20260901063021 69 42 23.0 36.0 0.00 0.00 0.00 98 900.0
20260901062823 69 39 27.0 35.0 0.00 0.00 0.00 98 899.6
20260901062521 69 58 6.0 34.0 0.00 0.00 0.00 98 900.0
20260901062223 69 48 25.0 34.0 0.00 0.00 0.00 98 900.1
20260901062021 69 68 26.0 33.0 0.00 0.00 0.00 98 900.2
20260901061622 69 56 18.0 32.0 0.00 0.00 0.00 98 900.2
20260901061522 69 45 6.0 32.0 0.00 0.00 0.00 99 900.1
20260901061024 69 67 26.0 32.0 0.00 0.00 0.00 98 899.9
20260901060521 69 47 11.0 32.0 0.00 0.00 0.00 98 900.1
20260901060422 69 35 30.0 37.0 0.01 0.01 0.00 98 900.0
20260901060021 69 45 25.0 34.0 0.00 0.00 0.00 98 900.1
20260901055822 69 61 26.0 34.0 0.00 0.00 0.00 98 900.3
20260901055521 69 64 15.0 29.0 0.00 0.00 0.00 98 900.1
20260901055222 69 56 26.0 34.0 0.00 0.00 0.00 98 900.4
20260901055021 69 64 22.0 30.0 0.00 0.00 0.00 98 900.5
20260901054622 69 56 25.0 30.0 0.00 0.00 0.00 98 900.2
20260901054521 69 32 15.0 30.0 0.00 0.00 0.00 98 900.0
20260901054023 69 45 28.0 36.0 0.00 0.00 0.00 98 900.4
20260901054021 69 50 27.0 36.0 0.00 0.00 0.00 98 900.3
20260901053521 69 64 5.0 29.0 0.00 0.00 0.00 99 900.7
20260901053422 69 45 27.0 36.0 0.10 0.10 0.00 98 900.3
20260901053021 69 51 26.0 35.0 0.10 0.10 0.00 98 900.5
20260901052822 69 47 25.0 35.0 0.09 0.09 0.00 98 900.7
20260901052521 69 50 25.0 34.0 0.09 0.09 0.00 98 900.6
20260901052222 69 55 26.0 34.0 0.09 0.09 0.00 98 900.8
20260901052021 69 58 25.0 34.0 0.09 0.09 0.00 98 900.9
20260901051622 69 63 26.0 34.0 0.09 0.09 0.00 98 901.1
20260901051022 69 43 25.0 33.0 0.07 0.07 0.00 98 900.9
20260901050521 69 58 25.0 35.0 0.07 0.07 0.00 99 901.1
20260901050422 69 60 24.0 35.0 0.07 0.07 0.00 99 901.1
20260901050021 69 72 26.0 36.0 0.06 0.06 0.00 99 901.2
20260901045822 69 54 25.0 36.0 0.06 0.06 0.00 99 901.1
20260901045222 69 62 26.0 36.0 0.03 0.03 0.00 99 901.5
20260901044622 69 70 26.0 36.0 0.00 0.00 0.00 99 900.9
20260901044521 69 60 13.0 36.0 0.00 0.00 0.00 99 901.4
20260901040520 69 55 27.0 36.0 0.03 0.03 0.00 98 901.1
20260901040421 69 52 22.0 35.0 0.02 0.02 0.00 98 901.3
20260901035821 69 80 25.0 34.0 0.05 0.05 0.00 98 901.6
20260901035021 69 49 6.0 32.0 0.00 0.00 0.00 99 901.5
20260901034621 69 64 26.0 35.0 0.03 0.03 0.00 98 901.7
20260901034520 69 45 23.0 29.0 0.02 0.02 0.00 98 901.4
20260901034022 69 52 23.0 33.0 0.07 0.07 0.00 98 901.7
20260901034020 69 61 23.0 33.0 0.07 0.07 0.00 98 901.7
20260901033520 69 45 25.0 33.0 0.03 0.03 0.00 98 901.7
20260901033421 69 50 23.0 33.0 0.03 0.03 0.00 98 901.7
20260901033020 69 58 6.0 26.0 0.00 0.00 0.00 98 901.8
20260901032821 69 55 25.0 32.0 0.07 0.07 0.00 98 901.8
20260901032520 69 46 26.0 32.0 0.06 0.06 0.00 98 901.7
20260901032221 69 31 22.0 29.0 0.03 0.03 0.00 98 902.0
20260901032020 69 55 23.0 29.0 0.03 0.03 0.00 98 902.0
20260901031621 69 62 20.0 28.0 0.01 0.01 0.00 98 902.0
20260901031520 69 45 18.0 28.0 0.01 0.01 0.00 98 901.9
20260901031021 69 56 20.0 28.0 0.00 0.00 0.00 99 902.1
20260901030520 69 53 21.0 26.0 0.03 0.03 0.00 98 902.1
20260901030421 69 54 20.0 26.0 0.03 0.03 0.00 98 902.1
20260901030020 69 49 17.0 24.0 0.01 0.01 0.00 98 902.3
20260901025821 69 54 11.0 22.0 0.00 0.00 0.00 98 902.4
20260901025520 69 47 19.0 24.0 0.01 0.01 0.00 98 902.2
20260901025221 69 44 10.0 22.0 0.00 0.00 0.00 98 902.3
20260901025020 69 58 12.0 24.0 0.00 0.00 0.00 98 902.4
20260901024621 69 55 16.0 24.0 0.07 0.07 0.00 98 902.3
20260901024520 69 70 16.0 24.0 0.07 0.07 0.00 98 902.4
20260901024021 69 49 17.0 24.0 0.03 0.03 0.00 98 902.4
20260901023519 70 49 18.0 22.0 0.02 0.02 0.00 98 902.3
20260901023421 70 52 17.0 22.0 0.02 0.02 0.00 98 902.3
20260901023019 70 43 18.0 22.0 0.02 0.02 0.00 98 902.3
20260901022821 70 58 15.0 22.0 0.01 0.01 0.00 98 902.3
20260901022520 69 57 4.0 20.0 0.00 0.00 0.00 98 902.4
20260901022221 70 45 15.0 25.0 0.02 0.02 0.00 98 902.4
20260901022020 69 62 17.0 25.0 0.01 0.01 0.00 98 902.4
20260901021621 69 58 15.0 22.0 0.01 0.01 0.00 98 902.3
20260901021519 69 51 15.0 22.0 0.01 0.01 0.00 98 902.4
20260901021021 69 56 16.0 22.0 0.00 0.00 0.00 98 902.3
20260901021019 69 49 16.0 22.0 0.00 0.00 0.00 98 902.3
20260901020519 69 82 14.0 20.0 0.00 0.00 0.00 98 902.3
20260901020421 69 34 14.0 20.0 0.00 0.00 0.00 98 902.3
20260901015519 70 45 5.0 17.0 0.00 0.00 0.00 98 902.3
20260901015220 69 57 16.0 21.0 0.00 0.00 0.00 98 902.2
20260901015019 69 45 16.0 21.0 0.00 0.00 0.00 98 902.2
20260901014620 70 31 16.0 20.0 0.00 0.00 0.00 98 902.3
20260901014520 70 73 16.0 20.0 0.00 0.00 0.00 98 902.4
20260901014021 70 52 15.0 19.0 0.00 0.00 0.00 98 902.4
20260901014019 70 52 15.0 19.0 0.00 0.00 0.00 98 902.3
20260901013519 69 33 1.0 15.0 0.00 0.00 0.00 98 902.4
20260901013420 70 59 14.0 20.0 0.00 0.00 0.00 98 902.3
20260901013019 70 54 14.0 20.0 0.00 0.00 0.00 98 902.4
20260901012820 69 66 15.0 20.0 0.00 0.00 0.00 98 902.5
20260901012519 69 58 14.0 19.0 0.00 0.00 0.00 98 902.4
20260901012220 69 49 14.0 18.0 0.00 0.00 0.00 98 902.5
20260901012019 69 61 5.0 17.0 0.00 0.00 0.00 98 902.5
20260901011620 70 63 14.0 19.0 0.01 0.01 0.00 98 902.5
20260901011519 70 56 12.0 19.0 0.01 0.01 0.00 98 902.6
20260901011021 70 39 14.0 18.0 0.00 0.00 0.00 98 902.6
20260901011019 70 60 14.0 18.0 0.00 0.00 0.00 98 902.6
20260901010519 70 56 12.0 17.0 0.01 0.01 0.00 98 902.7
20260901010420 70 50 11.0 17.0 0.01 0.01 0.00 98 902.7
20260901010019 69 51 12.0 15.0 0.01 0.01 0.00 98 902.6
20260901005820 70 80 10.0 15.0 0.01 0.01 0.00 98 902.7
20260901005519 70 55 9.0 15.0 0.00 0.00 0.00 98 902.7
20260901005220 70 55 9.0 14.0 0.00 0.00 0.00 98 902.7
20260901005019 69 59 10.0 13.0 0.00 0.00 0.00 98 902.7
20260901004620 69 63 7.0 13.0 0.00 0.00 0.00 98 902.7
20260901004519 69 44 5.0 13.0 0.00 0.00 0.00 98 902.7
20260901004020 69 55 8.0 16.0 0.02 0.02 0.00 98 902.6
20260901003519 69 19 8.0 16.0 0.02 0.02 0.00 98 902.6
20260901003420 69 44 8.0 16.0 0.01 0.01 0.00 98 902.6
20260901003019 69 34 12.0 16.0 0.01 0.01 0.00 98 902.6
20260901002820 70 55 10.0 14.0 0.01 0.01 0.00 98 902.5
20260901002519 70 62 8.0 14.0 0.01 0.01 0.00 98 902.5
20260901002220 70 63 11.0 14.0 0.00 0.00 0.00 98 902.5
20260901002020 70 51 5.0 14.0 0.00 0.00 0.00 98 902.5
20260901001620 69 71 10.0 16.0 0.01 0.01 0.00 98 902.5
20260901001518 69 52 9.0 13.0 0.01 0.01 0.00 98 902.5
20260901001020 69 34 7.0 12.0 0.00 0.00 0.00 98 902.5
20260901001018 69 39 7.0 12.0 0.00 0.00 0.00 98 902.5
20260901000518 69 38 7.0 12.0 0.01 0.01 0.00 98 902.4
20260901000420 69 70 7.0 12.0 0.00 0.00 0.00 98 902.5
20260901000018 69 19 8.0 12.0 0.00 0.00 0.00 98 902.4
20260831235219 69 47 13.0 16.0 0.01 0.01 0.00 98 902.3
20260831235018 69 37 11.0 16.0 0.01 0.01 0.00 98 902.3
20260831234619 69 31 11.0 19.0 0.00 0.00 0.00 98 902.3
20260831234518 69 59 11.0 19.0 0.00 0.00 0.00 98 902.3
20260831234020 69 59 12.0 19.0 0.00 0.00 0.00 98 902.2
20260831234018 69 51 12.0 19.0 0.00 0.00 0.00 98 902.2
20260831233520 69 63 10.0 15.0 0.00 0.00 0.00 98 902.2
20260831233419 69 60 10.0 15.0 0.00 0.00 0.00 98 902.2
20260831233018 69 71 2.0 13.0 0.00 0.00 0.00 99 902.1
20260831232518 69 41 14.0 19.0 0.00 0.00 0.00 98 901.9
20260831232219 69 31 15.0 19.0 0.00 0.00 0.00 98 901.9
20260831232018 69 44 1.0 18.0 0.00 0.00 0.00 98 901.8
20260831231619 69 52 14.0 18.0 0.00 0.00 0.00 98 901.8
20260831231518 69 49 7.0 18.0 0.00 0.00 0.00 98 901.8
20260831231020 69 51 15.0 20.0 0.00 0.00 0.00 98 901.8
20260831231018 69 53 15.0 20.0 0.00 0.00 0.00 98 901.8
20260831230518 69 53 15.0 20.0 0.00 0.00 0.00 98 901.7
20260831230419 69 32 14.0 20.0 0.00 0.00 0.00 98 901.6
20260831230018 69 49 13.0 18.0 0.00 0.00 0.00 98 901.7
20260831225819 69 45 13.0 21.0 0.00 0.00 0.00 98 901.7
20260831225518 69 53 15.0 21.0 0.00 0.00 0.00 98 901.7
20260831225219 69 38 13.0 21.0 0.00 0.00 0.00 98 901.7
20260831225018 69 64 15.0 21.0 0.00 0.00 0.00 98 901.7
20260831224619 69 49 15.0 20.0 0.00 0.00 0.00 98 901.5
20260831224518 69 42 14.0 18.0 0.00 0.00 0.00 98 901.6
20260831224019 69 47 12.0 17.0 0.00 0.00 0.00 98 901.6
20260831223518 69 42 12.0 17.0 0.00 0.00 0.00 98 901.6
20260831223419 69 55 12.0 17.0 0.00 0.00 0.00 98 901.6
20260831223018 69 42 12.0 17.0 0.00 0.00 0.00 98 901.6
20260831222819 69 51 12.0 17.0 0.00 0.00 0.00 98 901.6
20260831222518 69 41 13.0 17.0 0.00 0.00 0.00 98 901.6
20260831222219 69 57 12.0 17.0 0.00 0.00 0.00 98 901.7
20260831222018 69 58 12.0 15.0 0.00 0.00 0.00 98 901.7
20260831221619 69 40 10.0 14.0 0.00 0.00 0.00 98 901.6
20260831221518 69 38 11.0 14.0 0.00 0.00 0.00 98 901.6
20260831221019 69 40 12.0 17.0 0.00 0.00 0.00 98 901.5
20260831221017 69 40 12.0 17.0 0.00 0.00 0.00 98 901.6
20260831220517 69 55 10.0 17.0 0.00 0.00 0.00 98 901.6
20260831220419 69 43 10.0 17.0 0.00 0.00 0.00 98 901.6
20260831220017 69 53 12.0 17.0 0.00 0.00 0.00 98 901.6
20260831215819 69 50 12.0 16.0 0.00 0.00 0.00 98 901.6
20260831215518 69 47 10.0 16.0 0.00 0.00 0.00 98 901.6
20260831215219 69 41 11.0 19.0 0.00 0.00 0.00 98 901.6
20260831215017 69 48 11.0 20.0 0.00 0.00 0.00 98 901.6
20260831214619 69 54 13.0 20.0 0.00 0.00 0.00 98 901.6
20260831214517 69 60 14.0 20.0 0.00 0.00 0.00 98 901.5
20260831214019 69 70 12.0 19.0 0.00 0.00 0.00 98 901.5
20260831214017 69 57 12.0 19.0 0.00 0.00 0.00 98 901.5
20260831213517 69 28 11.0 15.0 0.00 0.00 0.00 98 901.5
20260831213418 69 49 10.0 15.0 0.00 0.00 0.00 98 901.5
20260831213017 69 36 10.0 18.0 0.01 0.01 0.00 98 901.4
20260831212818 69 55 12.0 18.0 0.01 0.01 0.00 98 901.4
20260831212517 69 58 10.0 17.0 0.01 0.01 0.00 98 901.3
20260831212218 69 64 9.0 17.0 0.01 0.01 0.00 98 901.3
20260831212018 69 50 10.0 18.0 0.01 0.01 0.00 98 901.3
20260831211517 69 35 10.0 18.0 0.01 0.01 0.00 98 901.3
20260831211019 69 52 10.0 16.0 0.00 0.00 0.00 98 901.3
20260831211017 69 45 10.0 16.0 0.00 0.00 0.00 98 901.2
20260831210517 69 46 10.0 16.0 0.00 0.00 0.00 98 901.3
20260831210418 69 39 10.0 16.0 0.00 0.00 0.00 98 901.2
20260831210017 69 53 10.0 18.0 0.00 0.00 0.00 98 901.2
20260831205818 69 61 11.0 18.0 0.00 0.00 0.00 98 901.3
20260831205517 69 71 13.0 18.0 0.00 0.00 0.00 98 901.2
20260831205218 69 37 10.0 19.0 0.00 0.00 0.00 98 901.1
20260831205017 69 65 10.0 19.0 0.00 0.00 0.00 98 901.2
20260831204618 69 23 11.0 19.0 0.00 0.00 0.00 98 901.1
20260831204517 69 36 12.0 19.0 0.00 0.00 0.00 98 901.2
20260831204018 69 56 10.0 17.0 0.00 0.00 0.00 98 901.3
20260831203517 69 56 10.0 18.0 0.00 0.00 0.00 98 901.3
20260831203418 69 64 10.0 18.0 0.00 0.00 0.00 98 901.3
20260831203017 69 33 10.0 18.0 0.00 0.00 0.00 98 901.3
20260831202818 69 44 10.0 18.0 0.00 0.00 0.00 98 901.3
20260831202517 69 62 12.0 16.0 0.00 0.00 0.00 98 901.3
20260831202218 69 90 10.0 19.0 0.00 0.00 0.00 98 901.2
20260831202016 69 21 10.0 19.0 0.00 0.00 0.00 98 901.2
20260831201618 69 68 11.0 19.0 0.00 0.00 0.00 98 901.3
20260831201516 69 58 12.0 19.0 0.00 0.00 0.00 98 901.3
20260831201018 69 51 13.0 18.0 0.00 0.00 0.00 98 901.3
20260831201016 69 50 13.0 18.0 0.00 0.00 0.00 98 901.3
20260831200516 69 61 11.0 17.0 0.00 0.00 0.00 98 901.4
20260831200418 69 62 11.0 17.0 0.00 0.00 0.00 98 901.5
20260831195818 69 42 11.0 17.0 0.00 0.00 0.00 98 901.5
20260831195516 69 18 10.0 14.0 0.00 0.00 0.00 98 901.5
20260831194617 69 65 15.0 23.0 0.02 0.02 0.00 98 901.4
20260831194018 69 66 15.0 23.0 0.02 0.02 0.00 98 901.5
20260831194016 69 55 15.0 23.0 0.02 0.02 0.00 98 901.5
20260831193516 69 49 13.0 19.0 0.01 0.01 0.00 98 901.5
20260831193418 69 42 12.0 19.0 0.01 0.01 0.00 98 901.5
20260831193016 69 52 14.0 19.0 0.01 0.01 0.00 98 901.4
20260831192818 69 49 13.0 19.0 0.01 0.01 0.00 98 901.5
20260831192516 69 66 11.0 18.0 0.01 0.01 0.00 98 901.6
20260831192217 69 54 12.0 18.0 0.01 0.01 0.00 98 901.5
20260831192016 69 27 12.0 17.0 0.00 0.00 0.00 98 901.5
20260831191617 69 44 10.0 17.0 0.00 0.00 0.00 98 901.7
20260831191516 69 57 11.0 19.0 0.00 0.00 0.00 98 901.7
20260831191018 69 58 10.0 19.0 0.00 0.00 0.00 98 901.7
20260831191016 69 79 10.0 19.0 0.00 0.00 0.00 98 901.7
20260831190516 69 49 12.0 18.0 0.00 0.00 0.00 98 901.6
20260831190417 69 49 11.0 17.0 0.00 0.00 0.00 98 901.7
20260831190016 69 58 12.0 18.0 0.00 0.00 0.00 98 901.7
20260831185817 69 45 12.0 17.0 0.00 0.00 0.00 98 901.6
20260831185516 69 51 10.0 18.0 0.00 0.00 0.00 98 901.7
20260831185016 69 42 12.0 18.0 0.00 0.00 0.00 98 901.7
20260831184617 69 53 13.0 19.0 0.00 0.00 0.00 98 901.7
20260831184516 69 54 13.0 19.0 0.00 0.00 0.00 98 901.6
20260831184018 69 42 2.0 19.0 0.00 0.00 0.00 99 901.7
20260831184016 69 50 2.0 19.0 0.00 0.00 0.00 99 901.6
20260831183516 69 66 14.0 21.0 0.00 0.00 0.00 98 901.8
20260831183417 69 50 14.0 21.0 0.00 0.00 0.00 98 901.7
20260831183016 69 59 15.0 21.0 0.00 0.00 0.00 98 901.6
20260831182817 69 50 7.0 20.0 0.00 0.00 0.00 99 901.5
20260831182516 69 38 16.0 22.0 0.00 0.00 0.00 98 901.6
20260831182217 69 46 14.0 22.0 0.00 0.00 0.00 98 901.7
20260831182016 69 54 16.0 22.0 0.00 0.00 0.00 98 901.8
20260831181617 69 55 16.0 21.0 0.00 0.00 0.00 98 901.8
20260831181516 69 36 16.0 21.0 0.00 0.00 0.00 98 901.7
20260831181017 69 48 15.0 20.0 0.00 0.00 0.00 98 901.9
20260831180516 69 50 15.0 20.0 0.00 0.00 0.00 98 902.0
20260831180417 69 48 14.0 20.0 0.00 0.00 0.00 98 901.9
20260831180016 69 41 15.0 20.0 0.00 0.00 0.00 98 902.0
20260831175817 69 63 14.0 20.0 0.00 0.00 0.00 98 902.0
20260831175516 69 64 15.0 20.0 0.00 0.00 0.00 98 902.1
20260831175217 69 45 14.0 21.0 0.00 0.00 0.00 98 902.1
20260831175016 69 47 14.0 21.0 0.00 0.00 0.00 98 902.2
20260831174617 69 58 12.0 21.0 0.00 0.00 0.00 98 902.2
20260831174516 69 53 13.0 21.0 0.00 0.00 0.00 98 902.1
20260831174017 69 50 1.0 13.0 0.00 0.00 0.00 98 902.3
20260831174015 69 64 1.0 13.0 0.00 0.00 0.00 98 902.3
20260831173515 69 54 13.0 20.0 0.00 0.00 0.00 98 902.3
20260831173417 69 36 13.0 20.0 0.00 0.00 0.00 98 902.2
20260831172817 69 68 11.0 20.0 0.00 0.00 0.00 98 902.3
20260831172515 69 59 14.0 20.0 0.00 0.00 0.00 98 902.4
20260831172015 69 60 12.0 19.0 0.00 0.00 0.00 98 902.4
20260831171617 69 58 13.0 18.0 0.00 0.00 0.00 98 902.4
20260831171516 69 35 12.0 18.0 0.00 0.00 0.00 98 902.3
20260831171017 69 48 12.0 16.0 0.00 0.00 0.00 98 902.4
20260831171015 69 50 12.0 16.0 0.00 0.00 0.00 98 902.5
20260831170515 69 40 11.0 15.0 0.00 0.00 0.00 98 902.5
20260831170416 69 40 11.0 15.0 0.00 0.00 0.00 98 902.5
20260831170015 69 48 10.0 17.0 0.00 0.00 0.00 98 902.6
20260831165816 69 27 10.0 17.0 0.00 0.00 0.00 98 902.6
20260831165516 69 41 10.0 17.0 0.00 0.00 0.00 98 902.5
20260831164616 69 41 11.0 17.0 0.00 0.00 0.00 98 902.6
20260831164516 69 52 11.0 17.0 0.00 0.00 0.00 98 902.6
20260831164017 69 37 13.0 17.0 0.00 0.00 0.00 98 902.6
20260831164015 69 42 13.0 17.0 0.00 0.00 0.00 98 902.7
20260831163515 69 47 11.0 15.0 0.00 0.00 0.00 98 902.7
20260831163416 69 26 11.0 15.0 0.00 0.00 0.00 98 902.7
20260831163015 69 70 10.0 15.0 0.00 0.00 0.00 98 902.8
20260831162816 69 35 10.0 15.0 0.00 0.00 0.00 98 902.8
20260831162515 69 57 4.0 11.0 0.00 0.00 0.00 98 902.9
20260831162216 69 75 6.0 9.0 0.00 0.00 0.00 98 903.0
20260831162015 69 69 1.0 8.0 0.00 0.00 0.00 99 903.0
20260831161616 69 53 7.0 16.0 0.00 0.00 0.00 98 903.0
20260831161516 69 40 9.0 16.0 0.00 0.00 0.00 98 903.1
20260831161016 69 79 12.0 16.0 0.00 0.00 0.00 98 903.1
20260831160515 69 51 10.0 16.0 0.00 0.00 0.00 99 903.1
20260831160416 69 42 5.0 16.0 0.00 0.00 0.00 99 903.1
20260831154616 69 54 13.0 17.0 0.00 0.00 0.00 98 903.1
20260831154516 69 63 12.0 17.0 0.00 0.00 0.00 98 903.1
20260831154016 69 66 12.0 16.0 0.00 0.00 0.00 98 903.1
20260831154014 69 40 12.0 16.0 0.00 0.00 0.00 98 903.1
20260831153514 69 44 9.0 12.0 0.00 0.00 0.00 98 903.2
20260831153014 69 50 7.0 11.0 0.00 0.00 0.00 98 903.3
20260831152816 69 34 8.0 11.0 0.00 0.00 0.00 98 903.4
20260831152514 69 42 7.0 11.0 0.00 0.00 0.00 98 903.4
20260831152215 69 33 6.0 11.0 0.00 0.00 0.00 98 903.4
20260831152014 69 12 7.0 11.0 0.00 0.00 0.00 98 903.4
20260831151615 69 27 5.0 10.0 0.00 0.00 0.00 98 903.5
20260831151516 69 37 5.0 10.0 0.00 0.00 0.00 98 903.5
20260831151016 69 48 7.0 10.0 0.00 0.00 0.00 98 903.5
20260831151014 69 25 7.0 10.0 0.00 0.00 0.00 98 903.5
20260831150514 69 360 6.0 10.0 0.00 0.00 0.00 98 903.5
20260831150415 69 53 6.0 10.0 0.00 0.00 0.00 98 903.5
20260831150014 69 56 6.0 10.0 0.00 0.00 0.00 98 903.5
20260831145815 69 59 5.0 10.0 0.00 0.00 0.00 98 903.5
20260831145514 69 22 4.0 9.0 0.00 0.00 0.00 98 903.5
20260831145215 69 21 5.0 9.0 0.00 0.00 0.00 99 903.5
20260831145014 69 42 3.0 9.0 0.00 0.00 0.00 99 903.5
20260831143014 69 45 9.0 14.0 0.00 0.00 0.00 98 903.2
20260831142815 69 32 9.0 13.0 0.00 0.00 0.00 98 903.2
20260831142215 69 26 9.0 16.0 0.00 0.00 0.00 98 903.1
20260831142014 69 51 6.0 16.0 0.00 0.00 0.00 98 903.2
20260831141615 69 55 4.0 11.0 0.00 0.00 0.00 98 903.1
20260831141514 69 46 0.0 0.0 0.00 0.00 0.00 98 903.1
20260831141015 69 55 12.0 17.0 0.00 0.00 0.00 98 903.1
20260831140513 69 54 12.0 17.0 0.00 0.00 0.00 98 903.1
20260831140415 69 53 13.0 17.0 0.00 0.00 0.00 98 903.2
20260831140014 69 51 9.0 18.0 0.00 0.00 0.00 98 903.2
20260831135815 69 45 12.0 16.0 0.00 0.00 0.00 98 903.1
20260831135513 69 40 12.0 16.0 0.00 0.00 0.00 98 903.1
20260831135215 69 48 12.0 16.0 0.00 0.00 0.00 98 903.2
20260831135013 69 64 0.0 0.0 0.00 0.00 0.00 98 903.2
20260831134514 69 69 12.0 18.0 0.00 0.00 0.00 98 903.2
20260831134015 69 62 12.0 16.0 0.00 0.00 0.00 98 903.2
20260831134013 69 51 12.0 16.0 0.00 0.00 0.00 98 903.1
20260831133513 69 55 12.0 19.0 0.00 0.00 0.00 98 903.3
20260831133415 69 44 12.0 19.0 0.00 0.00 0.00 98 903.3
20260831133014 69 34 12.0 19.0 0.00 0.00 0.00 98 903.1
20260831132815 69 57 10.0 17.0 0.00 0.00 0.00 98 903.3
20260831132513 69 28 10.0 17.0 0.00 0.00 0.00 98 903.1
20260831132215 69 43 11.0 17.0 0.00 0.00 0.00 98 903.1
20260831132013 69 38 10.0 14.0 0.00 0.00 0.00 98 903.1
20260831131615 69 29 9.0 14.0 0.00 0.00 0.00 98 903.2
20260831131513 70 30 9.0 13.0 0.00 0.00 0.00 98 903.1
20260831131015 70 53 8.0 10.0 0.01 0.01 0.00 98 903.2
20260831130513 70 16 7.0 10.0 0.00 0.00 0.00 98 903.2
20260831130414 70 31 7.0 10.0 0.00 0.00 0.00 98 903.2
20260831130013 70 31 6.0 10.0 0.00 0.00 0.00 98 903.3
20260831125814 70 10 5.0 9.0 0.00 0.00 0.00 98 903.2
20260831125513 70 23 2.0 6.0 0.00 0.00 0.00 98 903.2
20260831125214 70 38 2.0 7.0 0.00 0.00 0.00 98 903.2
20260831125013 70 360 6.0 10.0 0.00 0.00 0.00 98 903.2
20260831124614 70 29 0.0 6.0 0.00 0.00 0.00 98 903.2
20260831124513 70 31 4.0 9.0 0.01 0.01 0.00 98 903.2
20260831124015 70 28 1.0 6.0 0.00 0.00 0.00 98 903.2
20260831124013 70 27 1.0 6.0 0.00 0.00 0.00 98 903.2
20260831123414 70 11 1.0 3.0 0.00 0.00 0.00 98 903.2
20260831123014 70 49 3.0 5.0 0.00 0.00 0.00 98 903.2
20260831122513 70 71 2.0 8.0 0.00 0.00 0.00 98 903.2
20260831122214 70 24 4.0 8.0 0.00 0.00 0.00 98 903.2
20260831122013 70 38 4.0 8.0 0.00 0.00 0.00 98 903.2
20260831121614 70 31 4.0 7.0 0.00 0.00 0.00 98 903.2
20260831121513 70 52 4.0 7.0 0.00 0.00 0.00 98 903.2
20260831121014 70 24 3.0 6.0 0.00 0.00 0.00 98 903.1
20260831120513 70 51 0.0 5.0 0.00 0.00 0.00 98 903.1
20260831120414 70 72 4.0 7.0 0.00 0.00 0.00 98 903.1
20260831115814 70 35 0.0 5.0 0.00 0.00 0.00 98 903.1
20260831115214 70 8 5.0 7.0 0.00 0.00 0.00 98 903.1
20260831115013 70 11 6.0 7.0 0.00 0.00 0.00 98 903.1
20260831114614 70 350 6.0 7.0 0.00 0.00 0.00 98 903.0
20260831114512 70 23 5.0 7.0 0.00 0.00 0.00 98 903.0